Location: Hamlin Beach State Park
(43.3614°N, 77.9586°W)
Time: 20:50:14
(UTC-04:00)

OTV 5 (USA 277) - Visible Passes

Search period start: 24 April 2018 00:00
Search period end: 04 May 2018 00:00
Orbit: 308 x 325 km, 54.5° (Epoch: 23 April)

Date Brightness Start Highest point End Pass type
(mag) Time Alt. Az. Time Alt. Az. Time Alt. Az.
27 Apr ? 22:25:28 10° NNW 22:26:54 13° NNE 22:26:58 13° NNE visible
28 Apr ? 22:39:28 10° NNW 22:40:48 18° N 22:40:48 18° N visible
29 Apr ? 21:20:29 10° N 21:21:23 11° NNE 21:22:16 10° NNE visible
29 Apr ? 22:53:40 10° NW 22:54:38 19° NNW 22:54:38 19° NNW visible
30 Apr ? 21:34:21 10° NNW 21:36:11 16° NNE 21:37:37 12° ENE visible
30 Apr ? 23:08:05 10° NW 23:08:29 13° WNW 23:08:29 13° WNW visible
01 May ? 21:48:27 10° NNW 21:50:53 28° NNE 21:51:30 25° ENE visible
02 May ? 22:02:44 10° NW 22:05:25 69° NNE 22:05:25 69° NNE visible
03 May ? 22:17:19 10° WNW 22:19:22 34° WSW 22:19:22 34° WSW visible
